Edinburgh, IN

8:43 PM EST on February 09, 2016 (GMT -0500)
Himsel Army Airfld, Nineveh,

Weather History for K1II - March, 2014

Change the Weather History Date:

Thursday, March 6, 2014

  Actual Average (KGEZ) Record (KGEZ)
Temperature  
Mean Temperature 32 °F 38 °F  
Max Temperature 42 °F 47 °F 67 °F (2009)
Min Temperature 21 °F 28 °F -2 °F (2015)
Degree Days  
Heating Degree Days 34 27  
Month to date heating degree days 169  
Since 1 July heating degree days 4332  
Cooling Degree Days 0 0  
Month to date cooling degree days 0  
Year to date cooling degree days 0  
Moisture  
Dew Point 20 °F    
Average Humidity 68    
Maximum Humidity 86    
Minimum Humidity 49    
Precipitation  
Precipitation 0.00 in 0.08 in 0.63 in (1999)
Month to date precipitation 0.49  
Year to date precipitation 5.24  
Sea Level Pressure  
Sea Level Pressure 30.23 in    
Wind  
Wind Speed 5 mph (NE)    
Max Wind Speed 10 mph    
Max Gust Speed -    
Visibility 10 miles    
Events      
T = Trace of Precipitation, MM = Missing Value Source: NWS Daily Summary

Daily Weather History Graph

Daily Weather History Graph

Search for Another Location

Airport or City:

Trip Planner

Search our weather history database for the weather conditions in past years. The results will help you decide how hot, cold, wet, or windy it might be!

Date:

Astronomy

Mar. 06, 2014 Rise Set
Actual Time 7:09 AM EST 6:41 PM EST
Civil Twilight 6:42 AM EST 7:08 PM EST
Nautical Twilight 6:11 AM EST 7:39 PM EST
Astronomical Twilight 5:40 AM EST 8:10 PM EST
Moon 10:18 AM EST (3/6) No Moon Set
Length of Visible Light 12h 26m
Length of Day
11h 32m
Waxing Crescent, 32% of the Moon is Illuminated
Mar 6
Waxing Crescent
Mar 8
First Quarter
Mar 16
Full
Mar 23
Last Quarter
Mar 30
New

Hourly Weather History & Observations

Time (EST) Temp. Windchill Dew Point Humidity Pressure Visibility Wind Dir Wind Speed Gust Speed Precip Events Conditions
12:15 AM 24.8 °F 19.1 °F 19.4 °F 80% 30.35 in 10.0 mi NE 4.6 mph - N/A   Unknown
12:35 AM 24.8 °F 17.9 °F 19.4 °F 80% 30.34 in 10.0 mi NE 5.8 mph - N/A   Unknown
12:55 AM 24.8 °F 17.9 °F 19.4 °F 80% 30.33 in 10.0 mi NE 5.8 mph - N/A   Unknown
1:15 AM 24.8 °F 19.1 °F 19.4 °F 80% 30.33 in 10.0 mi NE 4.6 mph - N/A   Unknown
1:35 AM 24.8 °F 17.9 °F 19.4 °F 80% 30.32 in 10.0 mi NE 5.8 mph - N/A   Unknown
1:55 AM 23.0 °F 13.9 °F 19.4 °F 86% 30.32 in 10.0 mi NE 8.1 mph - N/A   Unknown
2:15 AM 23.0 °F 14.7 °F 17.6 °F 80% 30.32 in 10.0 mi NE 6.9 mph - N/A   Unknown
2:35 AM 23.0 °F 17.0 °F 17.6 °F 80% 30.31 in 10.0 mi NE 4.6 mph - N/A   Unknown
2:55 AM 23.0 °F 15.8 °F 17.6 °F 80% 30.31 in 10.0 mi NE 5.8 mph - N/A   Unknown
3:15 AM 23.0 °F 17.0 °F 17.6 °F 80% 30.31 in 10.0 mi NNE 4.6 mph - N/A   Unknown
3:35 AM 23.0 °F 15.8 °F 17.6 °F 80% 30.31 in 10.0 mi NE 5.8 mph - N/A   Unknown
3:55 AM 23.0 °F 14.7 °F 15.8 °F 74% 30.30 in 10.0 mi NNE 6.9 mph - N/A   Unknown
4:15 AM 21.2 °F 14.9 °F 15.8 °F 80% 30.31 in 10.0 mi NNE 4.6 mph - N/A   Unknown
4:35 AM 21.2 °F 13.6 °F 15.8 °F 80% 30.30 in 10.0 mi NE 5.8 mph - N/A   Unknown
4:55 AM 21.2 °F 13.6 °F 15.8 °F 80% 30.30 in 10.0 mi NE 5.8 mph - N/A   Unknown
5:15 AM 21.2 °F 14.9 °F 14.0 °F 74% 30.30 in 10.0 mi NE 4.6 mph - N/A   Unknown
5:35 AM 21.2 °F 14.9 °F 14.0 °F 74% 30.30 in 10.0 mi NNE 4.6 mph - N/A   Unknown
5:55 AM 21.2 °F 13.6 °F 14.0 °F 74% 30.30 in 10.0 mi NE 5.8 mph - N/A   Unknown
6:15 AM 21.2 °F 14.9 °F 14.0 °F 74% 30.30 in 10.0 mi NE 4.6 mph - N/A   Unknown
6:35 AM 21.2 °F 14.9 °F 14.0 °F 74% 30.30 in 10.0 mi NNE 4.6 mph - N/A   Unknown
6:55 AM 21.2 °F 14.9 °F 14.0 °F 74% 30.30 in 10.0 mi NE 4.6 mph - N/A   Unknown
7:15 AM 21.2 °F 14.9 °F 14.0 °F 74% 30.30 in 10.0 mi NE 4.6 mph - N/A   Unknown
7:35 AM 21.2 °F 14.9 °F 14.0 °F 74% 30.30 in 10.0 mi NE 4.6 mph - N/A   Unknown
7:55 AM 23.0 °F 14.7 °F 15.8 °F 74% 30.29 in 10.0 mi ENE 6.9 mph - N/A   Unknown
8:15 AM 23.0 °F 13.9 °F 15.8 °F 74% 30.29 in 10.0 mi ENE 8.1 mph - N/A   Unknown
8:35 AM 23.0 °F 13.9 °F 15.8 °F 74% 30.29 in 10.0 mi ENE 8.1 mph - N/A   Unknown
8:55 AM 26.6 °F 19.1 °F 15.8 °F 64% 30.31 in 10.0 mi ESE 6.9 mph - N/A   Unknown
9:15 AM 26.6 °F 16.8 °F 15.8 °F 64% 30.30 in 10.0 mi East 10.4 mph - N/A   Unknown
9:35 AM 26.6 °F 19.1 °F 17.6 °F 69% 30.30 in 10.0 mi East 6.9 mph - N/A   Unknown
9:55 AM 28.4 °F 21.2 °F 17.6 °F 64% 30.29 in 10.0 mi ENE 6.9 mph - N/A   Unknown
10:15 AM 28.4 °F 22.2 °F 17.6 °F 64% 30.28 in 10.0 mi ENE 5.8 mph - N/A   Unknown
10:40 AM 30.2 °F 22.6 °F 17.6 °F 60% 30.27 in 10.0 mi NE 8.1 mph - N/A   Unknown
10:55 AM 30.2 °F 23.4 °F 17.6 °F 60% 30.27 in 10.0 mi East 6.9 mph - N/A   Unknown
11:15 AM 32.0 °F 25.6 °F 19.4 °F 60% 30.28 in 10.0 mi East 6.9 mph - N/A   Unknown
11:35 AM 32.0 °F 26.4 °F 19.4 °F 60% 30.27 in 10.0 mi ESE 5.8 mph - N/A   Unknown
11:55 AM 32.0 °F 27.5 °F 19.4 °F 60% 30.27 in 10.0 mi East 4.6 mph - N/A   Unknown
12:15 PM 33.8 °F - 21.2 °F 60% 30.26 in 10.0 mi Calm Calm - N/A   Unknown
12:35 PM 33.8 °F 28.6 °F 21.2 °F 60% 30.24 in 10.0 mi East 5.8 mph - N/A   Unknown
12:55 PM 35.6 °F 29.9 °F 21.2 °F 56% 30.23 in 10.0 mi East 6.9 mph - N/A   Unknown
1:15 PM 37.4 °F 33.8 °F 21.2 °F 52% 30.23 in 10.0 mi NE 4.6 mph - N/A   Unknown
1:35 PM 37.4 °F 32.8 °F 21.2 °F 52% 30.21 in 10.0 mi East 5.8 mph - N/A   Unknown
1:55 PM 37.4 °F - 21.2 °F 52% 30.21 in 10.0 mi Calm Calm - N/A   Unknown
2:15 PM 39.2 °F 35.9 °F 23.0 °F 52% 30.20 in 10.0 mi NE 4.6 mph - N/A   Unknown
2:35 PM 39.2 °F 37.0 °F 23.0 °F 52% 30.19 in 10.0 mi ENE 3.5 mph - N/A   Unknown
2:55 PM 41.0 °F 38.0 °F 23.0 °F 49% 30.18 in 10.0 mi NE 4.6 mph - N/A   Unknown
3:15 PM 41.0 °F 37.1 °F 23.0 °F 49% 30.17 in 10.0 mi NNE 5.8 mph - N/A   Unknown
3:35 PM 41.0 °F 37.1 °F 24.8 °F 53% 30.16 in 10.0 mi NNE 5.8 mph - N/A   Unknown
3:55 PM 41.0 °F 35.8 °F 24.8 °F 53% 30.16 in 10.0 mi NNE 8.1 mph - N/A   Unknown
4:15 PM 42.8 °F 38.0 °F 24.8 °F 49% 30.15 in 10.0 mi NE 8.1 mph - N/A   Unknown
4:35 PM 42.8 °F 38.0 °F 26.6 °F 53% 30.14 in 10.0 mi ENE 8.1 mph - N/A   Unknown
4:55 PM 42.8 °F 39.3 °F 26.6 °F 53% 30.13 in 10.0 mi ENE 5.8 mph - N/A   Unknown
5:20 PM 42.8 °F 38.6 °F 24.8 °F 49% 30.12 in 10.0 mi ENE 6.9 mph - N/A   Unknown
5:35 PM 42.8 °F 39.3 °F 24.8 °F 49% 30.12 in 10.0 mi NE 5.8 mph - N/A   Unknown
5:55 PM 41.0 °F 38.0 °F 26.6 °F 57% 30.12 in 10.0 mi NNE 4.6 mph - N/A   Unknown
6:15 PM 41.0 °F 38.0 °F 24.8 °F 53% 30.12 in 10.0 mi ENE 4.6 mph - N/A   Unknown
6:35 PM 37.4 °F 34.9 °F 26.6 °F 65% 30.12 in 10.0 mi NE 3.5 mph - N/A   Unknown
6:55 PM 39.2 °F 37.0 °F 24.8 °F 56% 30.12 in 10.0 mi NNE 3.5 mph - N/A   Unknown
7:15 PM 37.4 °F - 24.8 °F 60% 30.12 in 10.0 mi Calm Calm - N/A   Unknown
7:35 PM 35.6 °F 32.8 °F 26.6 °F 70% 30.13 in 10.0 mi NNE 3.5 mph - N/A   Unknown
7:55 PM 32.0 °F 28.7 °F 24.8 °F 75% 30.13 in 10.0 mi North 3.5 mph - N/A   Unknown
8:15 PM 33.8 °F - 26.6 °F 75% 30.12 in 10.0 mi Calm Calm - N/A   Unknown
8:35 PM 30.2 °F 26.7 °F 23.0 °F 75% 30.12 in 10.0 mi NNW 3.5 mph - N/A   Unknown
8:55 PM 30.2 °F - 23.0 °F 75% 30.12 in 10.0 mi Calm Calm - N/A   Unknown
9:15 PM 30.2 °F - 23.0 °F 75% 30.13 in 10.0 mi Calm Calm - N/A   Unknown
9:35 PM 30.2 °F - 23.0 °F 75% 30.13 in 10.0 mi Calm Calm - N/A   Unknown
10:00 PM 28.4 °F - 23.0 °F 80% 30.12 in 10.0 mi Calm Calm - N/A   Unknown
10:15 PM 26.6 °F - 21.2 °F 80% 30.12 in 10.0 mi Calm Calm - N/A   Unknown
10:35 PM 26.6 °F - 23.0 °F 86% 30.12 in 10.0 mi Calm Calm - N/A   Unknown
10:55 PM 28.4 °F - 23.0 °F 80% 30.12 in 10.0 mi Calm Calm - N/A   Unknown
11:15 PM 28.4 °F - 23.0 °F 80% 30.12 in 10.0 mi Calm Calm - N/A   Unknown
11:35 PM 26.6 °F - 23.0 °F 86% 30.11 in 10.0 mi Calm Calm - N/A   Unknown
11:55 PM 26.6 °F - 23.0 °F 86% 30.11 in 10.0 mi Calm Calm - N/A   Unknown